This demonstration page uses our WeatherBlox Daily Observations layout. Learn more.

Left ArrowRight Arrow

34.02893, -84.19858

Hourly Observations for February 21, 2020

Temp ( °F °C ) Dew Point ( °F °C ) Humidity (%) Winds ( mph kmh ) Pressure ( in mb ) Visibility ( mi km ) Precip ( " mm )
12:08 am 00:08 Cloudy 38 3.3 35 1.7 89 89 NNW 5 7 30.38 1029 8 13 0.00 0.00
12:53 am 00:53 Cloudy 38 3.3 34 1.1 86 86 N 6 9 30.38 1029 10 16 0.00 0.00
1:46 am 01:46 Cloudy 37 2.8 34 1.1 89 89 NW 9 15 30.37 1028 10 16 0.00 0.00
1:53 am 01:53 Cloudy 37 2.8 33 0.6 86 86 NW 10 17 30.37 1029 10 16 0.00 0.00
2:16 am 02:16 Cloudy 36 2.2 33 0.6 89 89 NNW 9 15 30.37 1029 10 16 0.00 0.00
2:28 am 02:28 Cloudy with Light Rain 36 2.2 33 0.6 89 89 NNW 8 13 30.37 1029 9 14 0.00 0.00
2:53 am 02:53 Cloudy 36 2.2 33 0.6 89 89 NW 10 17 30.37 1029 10 16 0.00 0.00
3:53 am 03:53 Cloudy 36 2.2 32 0 86 86 NNW 8 13 30.37 1029 10 16 0.00 0.00
4:15 am 04:15 Cloudy 35 1.7 31 -0.6 85 85 NNW 9 15 30.37 1029 10 16 0.00 0.00
4:23 am 04:23 Cloudy 35 1.7 31 -0.6 85 85 NW 8 13 30.38 1029 10 16 0.00 0.00
4:53 am 04:53 Cloudy 35 1.7 30 -1.1 82 82 NNW 9 15 30.38 1029 10 16 0.00 0.00
5:53 am 05:53 Cloudy 34 1.1 29 -1.7 82 82 NNW 9 15 30.41 1030 10 16 0.00 0.00
6:53 am 06:53 Cloudy 33 0.6 28 -2.2 82 82 NNW 8 13 30.43 1031 10 16 0.00 0.00
7:53 am 07:53 Cloudy 33 0.6 27 -2.8 78 78 NNW 8 13 30.46 1031 10 16 0.00 0.00
8:53 am 08:53 Mostly Sunny 34 1.1 27 -2.8 76 76 NW 9 15 30.49 1032 10 16 0.00 0.00
9:53 am 09:53 Partly Cloudy 37 2.8 28 -2.2 70 70 VRB 7 11 30.51 1033 10 16 0.00 0.00
10:53 am 10:53 Sunny 39 3.9 28 -2.2 65 65 NNW 7 11 30.51 1033 10 16 0.00 0.00
11:53 am 11:53 Sunny 42 5.6 29 -1.7 60 60 Calm 30.52 1033 10 16 0.00 0.00
12:53 pm 12:53 Mostly Cloudy 43 6.1 28 -2.2 56 56 Calm 30.50 1033 10 16 0.00 0.00
1:53 pm 13:53 Partly Cloudy 45 7.2 26 -3.3 48 48 Calm 30.47 1032 10 16 0.00 0.00
2:53 pm 14:53 Partly Cloudy 46 7.8 27 -2.8 47 47 VRB 3 6 30.45 1031 10 16 0.00 0.00
3:53 pm 15:53 Mostly Sunny 48 8.9 28 -2.2 46 46 N 5 7 30.44 1031 10 16 0.00 0.00
4:53 pm 16:53 Sunny 47 8.3 25 -3.9 42 42 VRB 6 9 30.44 1031 10 16 0.00 0.00
5:53 pm 17:53 Sunny 46 7.8 27 -2.8 47 47 NNE 3 6 30.45 1031 10 16 0.00 0.00
6:53 pm 18:53 Clear 43 6.1 29 -1.7 58 58 WNW 8 13 30.48 1032 10 16 0.00 0.00
7:53 pm 19:53 Clear 40 4.4 28 -2.2 63 63 NW 9 15 30.50 1033 10 16 0.00 0.00
8:53 pm 20:53 Clear 38 3.3 27 -2.8 65 65 Calm 30.50 1033 10 16 0.00 0.00
9:53 pm 21:53 Clear 36 2.2 26 -3.3 67 67 Calm 30.51 1033 10 16 0.00 0.00
10:53 pm 22:53 Clear 33 0.6 26 -3.3 75 75 Calm 30.50 1033 10 16 0.00 0.00
11:53 pm 23:53 Clear 30 -1.1 27 -2.8 88 88 Calm 30.49 1033 10 16 0.00 0.00

Powered by AerisWeather